| time (UTC) | temp F | wind direction | speed MPH | gust MPH | rain 1hr in | rain 24hr in | rain mn in | humidity % | barometer mb |
| 20260905222531 | 64 | 252 | 1.0 | 4.0 | 0.00 | 0.00 | 0.00 | 83 | 1011.8 |
| 20260905222027 | 64 | 248 | 0.0 | 4.0 | 0.00 | 0.00 | 0.00 | 83 | 1011.8 |
| 20260905221543 | 64 | 0 | 1.0 | 4.0 | 0.00 | 0.00 | 0.00 | 82 | 1011.8 |
| 20260905221030 | 65 | 221 | 1.0 | 4.0 | 0.00 | 0.00 | 0.00 | 81 | 1011.8 |
| 20260905220529 | 65 | 224 | 1.0 | 4.0 | 0.00 | 0.00 | 0.00 | 80 | 1011.8 |
| 20260905220044 | 66 | 226 | 1.0 | 4.0 | 0.00 | 0.00 | 0.00 | 80 | 1011.7 |
| 20260905215530 | 66 | 0 | 0.0 | 0.0 | 0.00 | 0.00 | 0.00 | 79 | 1011.6 |
| 20260905215030 | 67 | 0 | 0.0 | 1.0 | 0.00 | 0.00 | 0.00 | 79 | 1011.8 |
| 20260905214539 | 67 | 0 | 0.0 | 2.0 | 0.00 | 0.00 | 0.00 | 77 | 1011.7 |
| 20260905214029 | 67 | 0 | 0.0 | 2.0 | 0.00 | 0.00 | 0.00 | 75 | 1011.6 |
| 20260905213530 | 68 | 0 | 0.0 | 2.0 | 0.00 | 0.00 | 0.00 | 75 | 1011.6 |
| 20260905213047 | 68 | 0 | 0.0 | 1.0 | 0.00 | 0.00 | 0.00 | 74 | 1011.5 |
| 20260905212527 | 68 | 0 | 0.0 | 2.0 | 0.00 | 0.00 | 0.00 | 75 | 1011.3 |
| 20260905212029 | 69 | 0 | 0.0 | 3.0 | 0.00 | 0.00 | 0.00 | 73 | 1011.4 |
| 20260905211725 | 69 | 101 | 0.0 | 3.0 | 0.00 | 0.00 | 0.00 | 72 | 1011.3 |
| 20260905211029 | 69 | 76 | 0.0 | 3.0 | 0.00 | 0.00 | 0.00 | 72 | 1011.3 |
| 20260905210529 | 69 | 0 | 1.0 | 3.0 | 0.00 | 0.00 | 0.00 | 72 | 1011.3 |
| 20260905210101 | 69 | 90 | 1.0 | 3.0 | 0.00 | 0.00 | 0.00 | 73 | 1011.3 |
| 20260905205529 | 69 | 0 | 0.0 | 4.0 | 0.00 | 0.00 | 0.00 | 75 | 1011.2 |
| 20260905205030 | 68 | 53 | 0.0 | 4.0 | 0.00 | 0.00 | 0.00 | 78 | 1011.2 |
| 20260905204554 | 68 | 0 | 1.0 | 3.0 | 0.00 | 0.00 | 0.00 | 77 | 1011.1 |
| 20260905204029 | 68 | 37 | 1.0 | 3.0 | 0.00 | 0.00 | 0.00 | 77 | 1011.1 |
| 20260905203530 | 69 | 305 | 1.0 | 3.0 | 0.00 | 0.00 | 0.00 | 78 | 1011.1 |
| 20260905203102 | 69 | 85 | 0.0 | 5.0 | 0.00 | 0.00 | 0.00 | 77 | 1011.0 |
| 20260905202530 | 69 | 0 | 0.0 | 5.0 | 0.00 | 0.00 | 0.00 | 76 | 1011.2 |
| 20260905202029 | 69 | 348 | 0.0 | 5.0 | 0.00 | 0.00 | 0.00 | 76 | 1011.2 |
| 20260905201540 | 69 | 0 | 1.0 | 5.0 | 0.00 | 0.00 | 0.00 | 75 | 1011.1 |
| 20260905201029 | 68 | 0 | 1.0 | 5.0 | 0.00 | 0.00 | 0.00 | 78 | 1011.1 |
| 20260905200531 | 68 | 314 | 2.0 | 5.0 | 0.00 | 0.00 | 0.00 | 75 | 1011.1 |
| 20260905200129 | 68 | 338 | 1.0 | 4.0 | 0.00 | 0.00 | 0.00 | 78 | 1011.1 |
| 20260905195529 | 68 | 283 | 1.0 | 4.0 | 0.00 | 0.00 | 0.00 | 81 | 1011.1 |
| 20260905195032 | 67 | 313 | 1.0 | 4.0 | 0.00 | 0.00 | 0.00 | 83 | 1010.9 |
| 20260905194547 | 66 | 45 | 0.0 | 2.0 | 0.00 | 0.00 | 0.00 | 85 | 1011.0 |
| 20260905194027 | 66 | 0 | 0.0 | 0.0 | 0.00 | 0.00 | 0.00 | 87 | 1010.9 |
| 20260905193528 | 65 | 0 | 0.0 | 2.0 | 0.00 | 0.00 | 0.00 | 86 | 1010.9 |
| 20260905193043 | 65 | 0 | 0.0 | 2.0 | 0.00 | 0.00 | 0.00 | 84 | 1011.0 |
| 20260905192529 | 65 | 0 | 0.0 | 4.0 | 0.00 | 0.00 | 0.00 | 84 | 1011.0 |
| 20260905192030 | 66 | 348 | 1.0 | 5.0 | 0.00 | 0.00 | 0.00 | 83 | 1011.1 |
| 20260905191542 | 66 | 339 | 1.0 | 5.0 | 0.00 | 0.00 | 0.00 | 82 | 1011.1 |
| 20260905191030 | 66 | 82 | 1.0 | 5.0 | 0.00 | 0.00 | 0.00 | 82 | 1011.1 |
| 20260905190529 | 66 | 360 | 1.0 | 5.0 | 0.00 | 0.00 | 0.00 | 82 | 1011.2 |
| 20260905190049 | 66 | 71 | 1.0 | 4.0 | 0.00 | 0.00 | 0.00 | 81 | 1011.1 |
| 20260905185529 | 66 | 0 | 1.0 | 3.0 | 0.00 | 0.00 | 0.00 | 81 | 1011.0 |
| 20260905185031 | 66 | 153 | 0.0 | 3.0 | 0.00 | 0.00 | 0.00 | 82 | 1011.1 |
| 20260905184557 | 66 | 0 | 0.0 | 3.0 | 0.00 | 0.00 | 0.00 | 82 | 1011.0 |
| 20260905184028 | 66 | 0 | 1.0 | 5.0 | 0.00 | 0.00 | 0.00 | 81 | 1010.9 |
| 20260905183529 | 66 | 196 | 1.0 | 6.0 | 0.00 | 0.00 | 0.00 | 80 | 1010.9 |
| 20260905183045 | 67 | 194 | 1.0 | 7.0 | 0.00 | 0.00 | 0.00 | 80 | 1010.8 |
| 20260905182531 | 67 | 42 | 1.0 | 7.0 | 0.00 | 0.00 | 0.00 | 79 | 1010.9 |
| 20260905182030 | 67 | 278 | 1.0 | 4.0 | 0.00 | 0.00 | 0.00 | 80 | 1010.8 |
| 20260905181553 | 67 | 0 | 1.0 | 4.0 | 0.00 | 0.00 | 0.00 | 79 | 1010.8 |
| 20260905181029 | 68 | 0 | 1.0 | 9.0 | 0.00 | 0.00 | 0.00 | 77 | 1010.8 |
| 20260905180529 | 69 | 325 | 1.0 | 9.0 | 0.00 | 0.00 | 0.00 | 75 | 1010.8 |
| 20260905180049 | 69 | 98 | 1.0 | 4.0 | 0.00 | 0.00 | 0.00 | 77 | 1010.7 |
| 20260905175530 | 69 | 28 | 0.0 | 6.0 | 0.00 | 0.00 | 0.00 | 73 | 1010.7 |
| 20260905175028 | 70 | 153 | 0.0 | 6.0 | 0.00 | 0.00 | 0.00 | 72 | 1010.8 |
| 20260905174548 | 70 | 58 | 2.0 | 6.0 | 0.00 | 0.00 | 0.00 | 67 | 1010.7 |
| 20260905174028 | 70 | 0 | 1.0 | 5.0 | 0.00 | 0.00 | 0.00 | 67 | 1010.6 |
| 20260905173529 | 70 | 0 | 2.0 | 5.0 | 0.00 | 0.00 | 0.00 | 67 | 1010.6 |
| 20260905173052 | 71 | 11 | 1.0 | 4.0 | 0.00 | 0.00 | 0.00 | 65 | 1010.5 |
| 20260905172530 | 70 | 42 | 1.0 | 4.0 | 0.00 | 0.00 | 0.00 | 68 | 1010.4 |
| 20260905172030 | 70 | 159 | 1.0 | 6.0 | 0.00 | 0.00 | 0.00 | 67 | 1010.4 |
| 20260905171555 | 70 | 30 | 0.0 | 7.0 | 0.00 | 0.00 | 0.00 | 68 | 1010.4 |
| 20260905171034 | 70 | 54 | 2.0 | 7.0 | 0.00 | 0.00 | 0.00 | 67 | 1010.4 |
| 20260905170529 | 70 | 0 | 1.0 | 7.0 | 0.00 | 0.00 | 0.00 | 69 | 1010.5 |
| 20260905170101 | 70 | 43 | 2.0 | 6.0 | 0.00 | 0.00 | 0.00 | 68 | 1010.5 |
| 20260905165534 | 69 | 293 | 2.0 | 6.0 | 0.00 | 0.00 | 0.00 | 69 | 1010.6 |
| 20260905165030 | 69 | 244 | 2.0 | 8.0 | 0.00 | 0.00 | 0.00 | 69 | 1010.5 |
| 20260905164549 | 69 | 22 | 2.0 | 8.0 | 0.00 | 0.00 | 0.00 | 68 | 1010.5 |
| 20260905164028 | 69 | 340 | 2.0 | 6.0 | 0.00 | 0.00 | 0.00 | 68 | 1010.5 |
| 20260905163528 | 69 | 253 | 1.0 | 5.0 | 0.00 | 0.00 | 0.00 | 68 | 1010.4 |
| 20260905163052 | 69 | 5 | 2.0 | 5.0 | 0.00 | 0.00 | 0.00 | 68 | 1010.6 |
| 20260905162529 | 69 | 329 | 1.0 | 11.0 | 0.00 | 0.00 | 0.00 | 70 | 1010.6 |
| 20260905162029 | 68 | 350 | 1.0 | 11.0 | 0.00 | 0.00 | 0.00 | 68 | 1010.6 |
| 20260905161550 | 69 | 342 | 1.0 | 10.0 | 0.00 | 0.00 | 0.00 | 69 | 1010.6 |
| 20260905161032 | 69 | 5 | 3.0 | 10.0 | 0.00 | 0.00 | 0.00 | 69 | 1010.5 |
| 20260905160528 | 69 | 355 | 3.0 | 11.0 | 0.00 | 0.00 | 0.00 | 68 | 1010.7 |
| 20260905160058 | 70 | 262 | 2.0 | 11.0 | 0.00 | 0.00 | 0.00 | 68 | 1010.6 |
| 20260905155530 | 70 | 286 | 2.0 | 8.0 | 0.00 | 0.00 | 0.00 | 68 | 1010.7 |
| 20260905155028 | 70 | 70 | 2.0 | 8.0 | 0.00 | 0.00 | 0.00 | 68 | 1010.7 |
| 20260905154556 | 70 | 360 | 2.0 | 7.0 | 0.00 | 0.00 | 0.00 | 69 | 1010.7 |
| 20260905154029 | 69 | 0 | 2.0 | 8.0 | 0.00 | 0.00 | 0.00 | 71 | 1010.6 |
| 20260905153530 | 69 | 360 | 2.0 | 8.0 | 0.00 | 0.00 | 0.00 | 69 | 1010.7 |
| 20260905153054 | 70 | 69 | 1.0 | 10.0 | 0.00 | 0.00 | 0.00 | 68 | 1010.6 |
| 20260905152527 | 70 | 297 | 3.0 | 10.0 | 0.00 | 0.00 | 0.00 | 69 | 1010.7 |
| 20260905152030 | 70 | 346 | 4.0 | 10.0 | 0.00 | 0.00 | 0.00 | 69 | 1010.7 |
| 20260905151552 | 69 | 302 | 3.0 | 8.0 | 0.00 | 0.00 | 0.00 | 69 | 1010.7 |
| 20260905151029 | 69 | 0 | 1.0 | 10.0 | 0.00 | 0.00 | 0.00 | 71 | 1010.7 |
| 20260905150531 | 69 | 342 | 2.0 | 10.0 | 0.00 | 0.00 | 0.00 | 71 | 1010.7 |
| 20260905150048 | 68 | 329 | 2.0 | 7.0 | 0.00 | 0.00 | 0.00 | 73 | 1010.6 |
| 20260905145534 | 68 | 30 | 1.0 | 10.0 | 0.00 | 0.00 | 0.00 | 73 | 1010.7 |
| 20260905145030 | 67 | 221 | 2.0 | 10.0 | 0.00 | 0.00 | 0.00 | 74 | 1010.7 |
| 20260905144544 | 67 | 348 | 3.0 | 10.0 | 0.00 | 0.00 | 0.00 | 76 | 1010.8 |
| 20260905144029 | 67 | 53 | 3.0 | 9.0 | 0.00 | 0.00 | 0.00 | 74 | 1010.8 |
| 20260905143532 | 67 | 323 | 1.0 | 9.0 | 0.00 | 0.00 | 0.00 | 76 | 1010.8 |
| 20260905143102 | 67 | 347 | 2.0 | 10.0 | 0.00 | 0.00 | 0.00 | 73 | 1010.8 |
| 20260905142527 | 67 | 326 | 4.0 | 11.0 | 0.00 | 0.00 | 0.00 | 73 | 1010.8 |
| 20260905142029 | 67 | 324 | 3.0 | 11.0 | 0.00 | 0.00 | 0.00 | 74 | 1010.7 |
| 20260905141550 | 67 | 5 | 3.0 | 11.0 | 0.00 | 0.00 | 0.00 | 76 | 1010.7 |
| 20260905141030 | 67 | 334 | 2.0 | 11.0 | 0.00 | 0.00 | 0.00 | 75 | 1010.7 |
| 20260905140532 | 67 | 342 | 2.0 | 10.0 | 0.00 | 0.00 | 0.00 | 76 | 1010.9 |
| 20260905140050 | 66 | 305 | 3.0 | 9.0 | 0.00 | 0.00 | 0.00 | 77 | 1010.8 |
| 20260905135530 | 65 | 26 | 2.0 | 9.0 | 0.00 | 0.00 | 0.00 | 78 | 1010.8 |
| 20260905135031 | 65 | 306 | 3.0 | 9.0 | 0.00 | 0.00 | 0.00 | 78 | 1010.8 |
| 20260905134602 | 65 | 12 | 2.0 | 8.0 | 0.00 | 0.00 | 0.00 | 81 | 1010.8 |
| 20260905134031 | 64 | 244 | 1.0 | 6.0 | 0.00 | 0.00 | 0.00 | 81 | 1010.8 |
| 20260905133530 | 64 | 262 | 1.0 | 6.0 | 0.00 | 0.00 | 0.00 | 81 | 1010.6 |
| 20260905133052 | 64 | 318 | 2.0 | 6.0 | 0.00 | 0.00 | 0.00 | 81 | 1010.6 |
| 20260905132530 | 64 | 9 | 3.0 | 5.0 | 0.00 | 0.00 | 0.00 | 81 | 1010.5 |
| 20260905132028 | 64 | 288 | 1.0 | 7.0 | 0.00 | 0.00 | 0.00 | 82 | 1010.7 |
| 20260905131549 | 64 | 298 | 2.0 | 8.0 | 0.00 | 0.00 | 0.00 | 82 | 1010.6 |
| 20260905131030 | 64 | 334 | 3.0 | 8.0 | 0.00 | 0.00 | 0.00 | 82 | 1010.5 |
| 20260905130535 | 64 | 15 | 2.0 | 9.0 | 0.00 | 0.00 | 0.00 | 84 | 1010.2 |
| 20260905130051 | 63 | 344 | 2.0 | 9.0 | 0.00 | 0.00 | 0.00 | 85 | 1010.4 |
| 20260905125527 | 63 | 344 | 2.0 | 10.0 | 0.00 | 0.00 | 0.00 | 85 | 1010.6 |
| 20260905125031 | 62 | 0 | 4.0 | 10.0 | 0.00 | 0.00 | 0.00 | 85 | 1010.5 |
| 20260905124551 | 63 | 269 | 3.0 | 10.0 | 0.00 | 0.00 | 0.00 | 85 | 1010.4 |
| 20260905124034 | 63 | 242 | 2.0 | 12.0 | 0.00 | 0.00 | 0.00 | 85 | 1010.3 |
| 20260905123530 | 63 | 309 | 3.0 | 12.0 | 0.00 | 0.00 | 0.00 | 85 | 1010.3 |
| 20260905123043 | 62 | 5 | 5.0 | 12.0 | 0.00 | 0.00 | 0.00 | 85 | 1010.2 |
| 20260905122528 | 62 | 36 | 3.0 | 9.0 | 0.00 | 0.00 | 0.00 | 87 | 1010.1 |
| 20260905122033 | 62 | 323 | 3.0 | 9.0 | 0.00 | 0.00 | 0.00 | 88 | 1010.1 |
| 20260905121549 | 61 | 5 | 2.0 | 8.0 | 0.00 | 0.00 | 0.00 | 88 | 1010.2 |
| 20260905121030 | 61 | 352 | 2.0 | 10.0 | 0.00 | 0.00 | 0.00 | 89 | 1010.0 |
| 20260905120530 | 61 | 330 | 3.0 | 10.0 | 0.00 | 0.00 | 0.00 | 89 | 1010.2 |
| 20260905120053 | 60 | 300 | 1.0 | 11.0 | 0.00 | 0.00 | 0.00 | 91 | 1010.2 |
| 20260905115529 | 60 | 16 | 3.0 | 11.0 | 0.00 | 0.00 | 0.00 | 92 | 1010.2 |
| 20260905115029 | 59 | 5 | 1.0 | 7.0 | 0.00 | 0.00 | 0.00 | 93 | 1010.3 |
| 20260905114559 | 59 | 239 | 1.0 | 7.0 | 0.00 | 0.00 | 0.00 | 92 | 1010.2 |
| 20260905114030 | 59 | 251 | 1.0 | 4.0 | 0.00 | 0.00 | 0.00 | 92 | 1010.2 |
| 20260905113530 | 59 | 250 | 1.0 | 4.0 | 0.00 | 0.00 | 0.00 | 92 | 1010.2 |
| 20260905113045 | 59 | 0 | 0.0 | 2.0 | 0.00 | 0.00 | 0.00 | 93 | 1010.2 |
| 20260905112530 | 59 | 0 | 0.0 | 3.0 | 0.00 | 0.00 | 0.00 | 93 | 1010.2 |
| 20260905112035 | 59 | 0 | 0.0 | 4.0 | 0.00 | 0.00 | 0.00 | 93 | 1010.1 |
| 20260905111608 | 59 | 241 | 1.0 | 7.0 | 0.00 | 0.00 | 0.00 | 93 | 1010.0 |
| 20260905111029 | 59 | 277 | 0.0 | 7.0 | 0.00 | 0.00 | 0.00 | 93 | 1009.9 |
| 20260905110529 | 59 | 255 | 2.0 | 7.0 | 0.00 | 0.00 | 0.00 | 93 | 1010.0 |
| 20260905110055 | 59 | 0 | 2.0 | 7.0 | 0.00 | 0.00 | 0.00 | 93 | 1010.0 |
| 20260905105530 | 59 | 254 | 1.0 | 6.0 | 0.00 | 0.00 | 0.00 | 93 | 1009.9 |
| 20260905105031 | 58 | 0 | 1.0 | 6.0 | 0.00 | 0.00 | 0.00 | 94 | 1009.9 |
| 20260905104608 | 58 | 326 | 0.0 | 6.0 | 0.00 | 0.00 | 0.00 | 94 | 1009.9 |
| 20260905104032 | 58 | 258 | 1.0 | 4.0 | 0.00 | 0.00 | 0.00 | 94 | 1009.9 |
| 20260905103529 | 58 | 234 | 2.0 | 4.0 | 0.00 | 0.00 | 0.00 | 94 | 1009.8 |
| 20260905103045 | 58 | 254 | 2.0 | 4.0 | 0.00 | 0.00 | 0.00 | 94 | 1009.7 |
| 20260905102530 | 58 | 272 | 1.0 | 3.0 | 0.00 | 0.00 | 0.00 | 94 | 1009.7 |
| 20260905102028 | 58 | 272 | 0.0 | 2.0 | 0.00 | 0.00 | 0.00 | 94 | 1009.8 |
| 20260905101555 | 58 | 272 | 0.0 | 1.0 | 0.00 | 0.00 | 0.00 | 94 | 1009.8 |
| 20260905101027 | 58 | 0 | 0.0 | 1.0 | 0.00 | 0.00 | 0.00 | 94 | 1009.8 |
| 20260905100527 | 57 | 0 | 0.0 | 2.0 | 0.00 | 0.00 | 0.00 | 94 | 1009.6 |
| 20260905100052 | 57 | 272 | 0.0 | 2.0 | 0.00 | 0.00 | 0.00 | 94 | 1009.5 |
| 20260905095529 | 58 | 0 | 0.0 | 2.0 | 0.00 | 0.00 | 0.00 | 94 | 1009.4 |
| 20260905095030 | 57 | 0 | 0.0 | 4.0 | 0.00 | 0.00 | 0.00 | 93 | 1009.4 |
| 20260905094642 | 58 | 277 | 0.0 | 7.0 | 0.00 | 0.00 | 0.00 | 93 | 1009.3 |
| 20260905094029 | 58 | 0 | 1.0 | 7.0 | 0.00 | 0.00 | 0.00 | 93 | 1009.3 |
| 20260905093527 | 58 | 259 | 1.0 | 4.0 | 0.00 | 0.00 | 0.00 | 93 | 1009.3 |
| 20260905093104 | 58 | 299 | 0.0 | 4.0 | 0.00 | 0.00 | 0.00 | 93 | 1009.3 |
| 20260905092529 | 58 | 234 | 0.0 | 4.0 | 0.00 | 0.00 | 0.00 | 93 | 1009.4 |
| 20260905092031 | 58 | 292 | 1.0 | 4.0 | 0.00 | 0.00 | 0.00 | 93 | 1009.4 |
| 20260905091556 | 58 | 289 | 0.0 | 4.0 | 0.00 | 0.00 | 0.00 | 93 | 1009.4 |
| 20260905091027 | 58 | 0 | 0.0 | 4.0 | 0.00 | 0.00 | 0.00 | 93 | 1009.3 |
| 20260905090530 | 58 | 0 | 0.0 | 4.0 | 0.00 | 0.00 | 0.00 | 93 | 1009.5 |
| 20260905090053 | 58 | 0 | 1.0 | 4.0 | 0.00 | 0.00 | 0.00 | 93 | 1009.3 |
| 20260905085529 | 58 | 348 | 1.0 | 7.0 | 0.00 | 0.00 | 0.00 | 93 | 1009.2 |
| 20260905085034 | 58 | 0 | 1.0 | 7.0 | 0.00 | 0.00 | 0.00 | 93 | 1009.2 |
| 20260905084601 | 58 | 0 | 1.0 | 7.0 | 0.00 | 0.00 | 0.00 | 93 | 1009.2 |
| 20260905084029 | 58 | 0 | 1.0 | 6.0 | 0.00 | 0.00 | 0.00 | 93 | 1009.1 |
| 20260905083531 | 58 | 254 | 1.0 | 6.0 | 0.00 | 0.00 | 0.00 | 93 | 1009.2 |
| 20260905083045 | 58 | 263 | 2.0 | 6.0 | 0.00 | 0.00 | 0.00 | 92 | 1009.2 |
| 20260905082530 | 58 | 257 | 2.0 | 4.0 | 0.00 | 0.00 | 0.00 | 92 | 1009.1 |
| 20260905082030 | 58 | 279 | 1.0 | 5.0 | 0.00 | 0.00 | 0.00 | 92 | 1009.1 |
| 20260905081542 | 58 | 0 | 1.0 | 5.0 | 0.00 | 0.00 | 0.00 | 92 | 1009.2 |
| 20260905081027 | 58 | 263 | 0.0 | 4.0 | 0.00 | 0.00 | 0.00 | 92 | 1009.2 |
| 20260905080530 | 58 | 0 | 0.0 | 4.0 | 0.00 | 0.00 | 0.00 | 92 | 1009.3 |
| 20260905080105 | 58 | 272 | 0.0 | 3.0 | 0.00 | 0.00 | 0.00 | 91 | 1009.2 |
| 20260905075528 | 58 | 0 | 0.0 | 2.0 | 0.00 | 0.00 | 0.00 | 92 | 1009.3 |
| 20260905075033 | 58 | 0 | 0.0 | 4.0 | 0.00 | 0.00 | 0.00 | 91 | 1009.2 |
| 20260905074548 | 58 | 0 | 0.0 | 8.0 | 0.00 | 0.00 | 0.00 | 92 | 1009.3 |
| 20260905074029 | 58 | 0 | 1.0 | 8.0 | 0.00 | 0.00 | 0.00 | 92 | 1009.3 |
| 20260905073530 | 59 | 282 | 2.0 | 8.0 | 0.00 | 0.00 | 0.00 | 92 | 1009.4 |
| 20260905073042 | 59 | 0 | 1.0 | 5.0 | 0.00 | 0.00 | 0.00 | 91 | 1009.4 |
| 20260905072530 | 59 | 273 | 1.0 | 5.0 | 0.00 | 0.00 | 0.00 | 91 | 1009.6 |
| 20260905072030 | 59 | 0 | 0.0 | 6.0 | 0.00 | 0.00 | 0.00 | 91 | 1009.4 |
| 20260905071548 | 59 | 325 | 1.0 | 6.0 | 0.00 | 0.00 | 0.00 | 91 | 1009.6 |
| 20260905071029 | 59 | 267 | 1.0 | 6.0 | 0.00 | 0.00 | 0.00 | 91 | 1009.6 |
| 20260905070529 | 59 | 260 | 2.0 | 6.0 | 0.00 | 0.00 | 0.00 | 91 | 1009.5 |
| 20260905070045 | 59 | 246 | 1.0 | 6.0 | 0.00 | 0.00 | 0.00 | 91 | 1009.4 |
| 20260905065534 | 59 | 271 | 0.0 | 5.0 | 0.00 | 0.00 | 0.00 | 91 | 1009.7 |
| 20260905065029 | 59 | 271 | 1.0 | 5.0 | 0.00 | 0.00 | 0.00 | 91 | 1009.7 |
| 20260905064543 | 59 | 0 | 1.0 | 5.0 | 0.00 | 0.00 | 0.00 | 91 | 1009.9 |
| 20260905064028 | 59 | 252 | 1.0 | 5.0 | 0.00 | 0.00 | 0.00 | 90 | 1009.8 |
| 20260905063529 | 59 | 329 | 0.0 | 5.0 | 0.00 | 0.00 | 0.00 | 90 | 1009.9 |
| 20260905063045 | 59 | 360 | 0.0 | 3.0 | 0.00 | 0.00 | 0.00 | 89 | 1009.8 |
| 20260905062529 | 60 | 312 | 0.0 | 3.0 | 0.00 | 0.00 | 0.00 | 89 | 1010.0 |
| 20260905062030 | 60 | 0 | 0.0 | 3.0 | 0.00 | 0.00 | 0.00 | 89 | 1009.9 |
| 20260905061556 | 60 | 0 | 0.0 | 3.0 | 0.00 | 0.00 | 0.00 | 89 | 1010.0 |
| 20260905061029 | 60 | 243 | 0.0 | 3.0 | 0.00 | 0.00 | 0.00 | 89 | 1010.0 |
| 20260905060528 | 60 | 317 | 1.0 | 3.0 | 0.00 | 0.00 | 0.00 | 89 | 1009.9 |
| 20260905055529 | 60 | 0 | 1.0 | 6.0 | 0.00 | 0.00 | 0.00 | 89 | 1009.9 |
| 20260905055028 | 60 | 0 | 1.0 | 8.0 | 0.00 | 0.00 | 0.00 | 89 | 1009.8 |
| 20260905054554 | 59 | 0 | 2.0 | 8.0 | 0.00 | 0.00 | 0.00 | 90 | 1009.7 |
| 20260905054030 | 59 | 244 | 2.0 | 8.0 | 0.00 | 0.00 | 0.00 | 90 | 1009.7 |
| 20260905053530 | 59 | 253 | 1.0 | 7.0 | 0.00 | 0.00 | 0.00 | 90 | 1009.8 |
| 20260905053042 | 59 | 291 | 1.0 | 3.0 | 0.00 | 0.00 | 0.00 | 90 | 1009.8 |
| 20260905052527 | 59 | 254 | 0.0 | 2.0 | 0.00 | 0.00 | 0.00 | 89 | 1009.9 |
| 20260905052030 | 60 | 275 | 1.0 | 2.0 | 0.00 | 0.00 | 0.00 | 88 | 1009.9 |
| 20260905051603 | 60 | 0 | 0.0 | 3.0 | 0.00 | 0.00 | 0.00 | 88 | 1009.9 |
| 20260905051027 | 60 | 0 | 0.0 | 5.0 | 0.00 | 0.00 | 0.00 | 87 | 1010.0 |
| 20260905050530 | 60 | 336 | 1.0 | 5.0 | 0.00 | 0.00 | 0.00 | 87 | 1010.1 |
| 20260905050044 | 60 | 309 | 0.0 | 3.0 | 0.00 | 0.00 | 0.00 | 87 | 1010.0 |
| 20260905045529 | 60 | 0 | 0.0 | 3.0 | 0.00 | 0.00 | 0.00 | 87 | 1010.1 |
| 20260905045030 | 60 | 0 | 0.0 | 1.0 | 0.00 | 0.00 | 0.00 | 87 | 1010.1 |
| 20260905044552 | 61 | 0 | 0.0 | 1.0 | 0.00 | 0.00 | 0.00 | 86 | 1010.0 |
| 20260905044029 | 61 | 0 | 0.0 | 1.0 | 0.00 | 0.00 | 0.00 | 85 | 1010.0 |
| 20260905043529 | 61 | 0 | 0.0 | 1.0 | 0.00 | 0.00 | 0.00 | 85 | 1010.1 |
| 20260905043049 | 61 | 313 | 0.0 | 2.0 | 0.00 | 0.00 | 0.00 | 85 | 1010.1 |
| 20260905042530 | 61 | 0 | 0.0 | 5.0 | 0.00 | 0.00 | 0.00 | 84 | 1010.1 |
| 20260905042029 | 62 | 0 | 1.0 | 5.0 | 0.00 | 0.00 | 0.00 | 84 | 1010.1 |
| 20260905041548 | 62 | 336 | 1.0 | 5.0 | 0.00 | 0.00 | 0.00 | 84 | 1010.0 |
| 20260905041028 | 62 | 324 | 1.0 | 5.0 | 0.00 | 0.00 | 0.00 | 84 | 1010.0 |
| 20260905040529 | 62 | 340 | 1.0 | 3.0 | 0.00 | 0.00 | 0.00 | 84 | 1009.9 |
| 20260905040104 | 62 | 316 | 0.0 | 3.0 | 0.00 | 0.00 | 0.00 | 84 | 1009.9 |
| 20260905035530 | 62 | 326 | 0.0 | 9.0 | 0.00 | 0.00 | 0.00 | 83 | 1010.0 |
| 20260905035029 | 62 | 291 | 1.0 | 9.0 | 0.00 | 0.00 | 0.00 | 83 | 1009.9 |
| 20260905034550 | 62 | 250 | 1.0 | 5.0 | 0.00 | 0.00 | 0.00 | 82 | 1010.1 |
| 20260905034027 | 63 | 309 | 1.0 | 5.0 | 0.00 | 0.00 | 0.00 | 82 | 1009.9 |
| 20260905033529 | 63 | 281 | 1.0 | 4.0 | 0.00 | 0.00 | 0.00 | 82 | 1010.0 |
| 20260905033052 | 63 | 287 | 1.0 | 4.0 | 0.00 | 0.00 | 0.00 | 81 | 1010.0 |
| 20260905032528 | 63 | 0 | 1.0 | 3.0 | 0.00 | 0.00 | 0.00 | 81 | 1010.1 |
| 20260905032029 | 63 | 0 | 0.0 | 3.0 | 0.00 | 0.00 | 0.00 | 81 | 1010.1 |
| 20260905031552 | 63 | 18 | 0.0 | 4.0 | 0.00 | 0.00 | 0.00 | 80 | 1010.0 |
| 20260905031030 | 64 | 18 | 1.0 | 4.0 | 0.00 | 0.00 | 0.00 | 80 | 1010.1 |
| 20260905030529 | 63 | 352 | 0.0 | 4.0 | 0.00 | 0.00 | 0.00 | 80 | 1010.1 |
| 20260905025532 | 63 | 0 | 0.0 | 4.0 | 0.00 | 0.00 | 0.00 | 81 | 1010.1 |
| 20260905025027 | 63 | 0 | 1.0 | 4.0 | 0.00 | 0.00 | 0.00 | 81 | 1010.0 |
| 20260905024600 | 63 | 302 | 0.0 | 2.0 | 0.00 | 0.00 | 0.00 | 80 | 1010.2 |
| 20260905024029 | 63 | 0 | 0.0 | 2.0 | 0.00 | 0.00 | 0.00 | 80 | 1010.2 |
| 20260905023529 | 64 | 0 | 0.0 | 6.0 | 0.00 | 0.00 | 0.00 | 80 | 1010.4 |
| 20260905023045 | 64 | 0 | 0.0 | 7.0 | 0.00 | 0.00 | 0.00 | 81 | 1010.3 |
| 20260905022529 | 64 | 183 | 2.0 | 7.0 | 0.00 | 0.00 | 0.00 | 80 | 1010.2 |
| 20260905022029 | 64 | 160 | 1.0 | 4.0 | 0.00 | 0.00 | 0.00 | 80 | 1010.3 |
| 20260905021555 | 64 | 148 | 0.0 | 2.0 | 0.00 | 0.00 | 0.00 | 80 | 1010.2 |
| 20260905021031 | 64 | 0 | 0.0 | 2.0 | 0.00 | 0.00 | 0.00 | 80 | 1010.2 |
| 20260905020529 | 64 | 0 | 0.0 | 2.0 | 0.00 | 0.00 | 0.00 | 80 | 1010.1 |
| 20260905020052 | 64 | 0 | 0.0 | 5.0 | 0.00 | 0.00 | 0.00 | 79 | 1010.3 |
| 20260905015533 | 64 | 138 | 0.0 | 5.0 | 0.00 | 0.00 | 0.00 | 79 | 1010.3 |
| 20260905015032 | 64 | 156 | 1.0 | 5.0 | 0.00 | 0.00 | 0.00 | 78 | 1010.3 |
| 20260905014550 | 64 | 39 | 1.0 | 5.0 | 0.00 | 0.00 | 0.00 | 78 | 1010.4 |
| 20260905014029 | 64 | 257 | 1.0 | 5.0 | 0.00 | 0.00 | 0.00 | 78 | 1010.4 |
| 20260905013529 | 64 | 286 | 0.0 | 5.0 | 0.00 | 0.00 | 0.00 | 78 | 1010.4 |
| 20260905013106 | 64 | 360 | 1.0 | 10.0 | 0.00 | 0.00 | 0.00 | 78 | 1010.5 |
| 20260905012529 | 64 | 352 | 1.0 | 10.0 | 0.00 | 0.00 | 0.00 | 78 | 1010.4 |
| 20260905012030 | 64 | 290 | 1.0 | 4.0 | 0.00 | 0.00 | 0.00 | 79 | 1010.5 |
| 20260905011544 | 64 | 204 | 1.0 | 4.0 | 0.00 | 0.00 | 0.00 | 79 | 1010.4 |
| 20260905011030 | 64 | 299 | 1.0 | 4.0 | 0.00 | 0.00 | 0.00 | 78 | 1010.3 |
| 20260905010530 | 65 | 227 | 0.0 | 2.0 | 0.00 | 0.00 | 0.00 | 79 | 1010.4 |
| 20260905010047 | 65 | 283 | 0.0 | 2.0 | 0.00 | 0.00 | 0.00 | 78 | 1010.5 |
| 20260905005528 | 65 | 0 | 0.0 | 2.0 | 0.00 | 0.00 | 0.00 | 78 | 1010.6 |
| 20260905005030 | 65 | 0 | 0.0 | 2.0 | 0.00 | 0.00 | 0.00 | 78 | 1010.7 |
| 20260905004546 | 65 | 0 | 0.0 | 2.0 | 0.00 | 0.00 | 0.00 | 78 | 1010.7 |
| 20260905004027 | 65 | 232 | 0.0 | 2.0 | 0.00 | 0.00 | 0.00 | 78 | 1010.7 |
| 20260905003531 | 65 | 0 | 0.0 | 1.0 | 0.00 | 0.00 | 0.00 | 78 | 1010.7 |
| 20260905003044 | 65 | 0 | 0.0 | 2.0 | 0.00 | 0.00 | 0.00 | 77 | 1010.7 |
| 20260905002530 | 65 | 315 | 0.0 | 2.0 | 0.00 | 0.00 | 0.00 | 77 | 1010.7 |
| 20260905002030 | 65 | 315 | 0.0 | 2.0 | 0.00 | 0.00 | 0.00 | 77 | 1010.5 |
| 20260905001543 | 66 | 325 | 0.0 | 2.0 | 0.00 | 0.00 | 0.00 | 76 | 1010.2 |
| 20260905001030 | 66 | 0 | 0.0 | 7.0 | 0.00 | 0.00 | 0.00 | 76 | 1010.3 |
| 20260905000531 | 66 | 0 | 1.0 | 7.0 | 0.00 | 0.00 | 0.00 | 76 | 1010.4 |
| 20260905000055 | 66 | 0 | 1.0 | 4.0 | 0.00 | 0.00 | 0.00 | 76 | 1010.2 |
| 20260904235528 | 66 | 296 | 0.0 | 8.0 | 0.00 | 0.00 | 0.00 | 76 | 1010.3 |
| 20260904235030 | 66 | 252 | 1.0 | 8.0 | 0.00 | 0.00 | 0.00 | 75 | 1010.2 |
| 20260904234548 | 66 | 346 | 1.0 | 7.0 | 0.00 | 0.00 | 0.00 | 75 | 1010.1 |
| 20260904234031 | 66 | 221 | 1.0 | 7.0 | 0.00 | 0.00 | 0.00 | 75 | 1010.1 |
| 20260904233530 | 66 | 360 | 0.0 | 5.0 | 0.00 | 0.00 | 0.00 | 75 | 1010.0 |
| 20260904233040 | 67 | 317 | 1.0 | 4.0 | 0.00 | 0.00 | 0.00 | 74 | 1010.0 |
| 20260904232530 | 67 | 346 | 1.0 | 4.0 | 0.00 | 0.00 | 0.00 | 74 | 1010.1 |
| 20260904232030 | 67 | 334 | 0.0 | 6.0 | 0.00 | 0.00 | 0.00 | 73 | 1010.0 |
| 20260904231538 | 68 | 0 | 0.0 | 6.0 | 0.00 | 0.00 | 0.00 | 72 | 1009.9 |
| 20260904231029 | 68 | 269 | 2.0 | 6.0 | 0.00 | 0.00 | 0.00 | 71 | 1009.8 |
| 20260904230530 | 68 | 296 | 1.0 | 6.0 | 0.00 | 0.00 | 0.00 | 70 | 1009.9 |
| 20260904230105 | 69 | 259 | 1.0 | 8.0 | 0.00 | 0.00 | 0.00 | 69 | 1010.0 |
| 20260904225529 | 69 | 261 | 2.0 | 8.0 | 0.00 | 0.00 | 0.00 | 68 | 1010.1 |
| 20260904225027 | 70 | 323 | 2.0 | 10.0 | 0.00 | 0.00 | 0.00 | 67 | 1010.0 |
| 20260904224547 | 70 | 360 | 2.0 | 10.0 | 0.00 | 0.00 | 0.00 | 67 | 1010.0 |
| 20260904224030 | 70 | 340 | 2.0 | 9.0 | 0.00 | 0.00 | 0.00 | 66 | 1009.9 |
| 20260904223531 | 70 | 28 | 3.0 | 9.0 | 0.00 | 0.00 | 0.00 | 67 | 1009.9 |
| 20260904223103 | 70 | 311 | 1.0 | 8.0 | 0.00 | 0.00 | 0.00 | 67 | 1009.8 |